EPKKEPGD

Guest
Details From EPKK - BALICE
To EPGD - LECH WALESA
Flight Number -
Tags decoded
Created
Modified
Stats Distance 264 nm / 489 km
Max Altitude 0 ft / 0 m
Waypoints 5
Social Downloads 0
Likes 0
Share VATSIM

Download

Looking for another format? Having issues loading an existing format? Contact us
Advertisement - Login to hide

Notes

Requested: EPKK LDZ UN133 TITAK N133 VAVEK GRU EPGD Unmatched points: N133

Route

EPKK LDZ UN133 GRU EPGD

ID Type Via Altitude Latitude Longitude Leg Dist Tot Dist Heading (true) Name
O EPKK APT - 0 ft / 0 m 50.07782˚ 19.78550˚ - 0 nm - BALICE
LDZ VOR - 0 ft / 0 m 51.80012˚ 19.65615˚ 103 nm 103 nm 357° / 357° LODZ VOR-DME
TITAK FIX UN133 (AWY-HI) 0 ft / 0 m 52.19167˚ 19.46333˚ 24 nm 128 nm 343° / 343° -
GRU VOR UN133 (AWY-HI) 0 ft / 0 m 53.52124˚ 18.78134˚ 83 nm 211 nm 343° / 343° GRUDZIADZ VOR-DME
O EPGD APT - 0 ft / 0 m 54.37617˚ 18.47188˚ 52 nm 264 nm 348° / 348° LECH WALESA

Altitude Profile

Advertisement - Login to hide

Weather


0- 5 10 15 20 25 30 35+ Temperature / ° C

Clouds and Precipitation
Forecast for 2018-05-24 18:00 UTC. Updated 5 hours ago

Ground ~20,000 ft ~40,000 ft Winds

EPKK

Details ICAO EPKK (KRK)
Name BALICE
Region Poland
Timezone Europe/Warsaw (UTC+2.0)
Stats Elevation 791 ft / 241 m (AMSL)
Location 50.077821° 19.785503°
Runways 1
Magnetic Variation 5.256° E

METAR

EPKK 242200Z 05003KT 9999 SCT060 17/09 Q1020

Decode

TAF

TAF TAF EPKK 242030Z 2421/2521 04008KT CAVOK PROB40 TEMPO 2512/2519 SCT040CB

Decode

Departure Runways

ID Width Length Bearing (true) Bearing (mag) Surface Threshold Offset Overrun Length
07 197 ft / 60 m 8,343 ft / 2,543 m 77.75° 72.49° Concrete 0 ft / 0 m 0 ft / 0 m
25 197 ft / 60 m 8,343 ft / 2,543 m 257.77° 252.51° Concrete 784 ft / 239 m 0 ft / 0 m

EPGD

Details ICAO EPGD (GDN)
Name LECH WALESA
Region Poland
Timezone Europe/Warsaw (UTC+2.0)
Stats Elevation 489 ft / 149 m (AMSL)
Location 54.376167° 18.471884°
Runways 1
Magnetic Variation 5.511° E

METAR

EPGD 242200Z 01006KT 340V040 CAVOK 12/04 Q1025

Decode

TAF

TAF TAF EPGD 241730Z 2418/2518 03008KT CAVOK TEMPO 2515/2518 BKN030CB PROB40 TEMPO 2516/2518 VRB15G30KT 5000 TSRA BKN020CB

Decode

Destination Runways

ID Width Length Bearing (true) Bearing (mag) Surface Threshold Offset Overrun Length
11 148 ft / 45 m 9,158 ft / 2,791 m 112.96° 107.45° Asphalt 0 ft / 0 m 0 ft / 0 m
29 148 ft / 45 m 9,158 ft / 2,791 m 293.00° 287.49° Asphalt 0 ft / 0 m 0 ft / 0 m

Approach Navaids

Runway Type Ident Frequency Range Bearing (true) Bearing (mag) Slope Elevation
29 Localiser IGDA 110.30 MHz 18 nm / 33 km 292.96° 287.45° - 489 ft / 149 m (AMSL)
29 Glidescope IGDA 110.30 MHz 10 nm / 19 km 292.98° 287.47° 2.90° 489 ft / 149 m (AMSL)
29 DME IGDA 110.30 MHz 18 nm / 33 km - - - 492 ft / 150 m (AMSL)

Popular Alternatives